This demonstration page uses our WeatherBlox Daily Observations layout. Learn more.

Left ArrowRight Arrow

Hourly Observations for May 28, 2018

Temp ( °F °C ) Dew Point ( °F °C ) Humidity (%) Winds ( mph kmh ) Pressure ( in mb ) Visibility ( mi km ) Precip ( " mm )
12:51 am 00:51 Clear 68 20 23 -5 18 18 Calm 29.72 1006 10 16 0.00 0.00
1:51 am 01:51 Clear 64 17.8 22 -5.6 20 20 Calm 29.73 1007 10 16 0.00 0.00
2:51 am 02:51 Clear 63 17.2 24 -4.4 23 23 N 3 6 29.74 1007 10 16 0.00 0.00
3:51 am 03:51 Clear 58 14.4 20 -6.7 23 23 Calm 29.75 1007 10 16 0.00 0.00
4:51 am 04:51 Clear 57 13.9 22 -5.6 26 26 SE 6 9 29.77 1008 10 16 0.00 0.00
5:51 am 05:51 Sunny 59 15 22 -5.6 24 24 ESE 6 9 29.79 1009 10 16 0.00 0.00
6:51 am 06:51 Sunny 66 18.9 24 -4.4 20 20 SSE 6 9 29.80 1009 10 16 0.00 0.00
7:51 am 07:51 Sunny 71 21.7 26 -3.3 19 19 S 5 7 29.81 1009 10 16 0.00 0.00
8:51 am 08:51 Sunny 77 25 27 -2.8 16 16 SW 6 9 29.79 1009 10 16 0.00 0.00
9:51 am 09:51 Sunny 81 27.2 26 -3.3 13 13 VRB 3 6 29.78 1008 10 16 0.00 0.00
10:51 am 10:51 Sunny 83 28.3 25 -3.9 12 12 Calm 29.77 1008 10 16 0.00 0.00
11:51 am 11:51 Sunny 86 30 25 -3.9 11 11 SW 10 17 29.75 1008 10 16 0.00 0.00
12:51 pm 12:51 Sunny 89 31.7 22 -5.6 8 8 VRB 3 6 29.73 1007 10 16 0.00 0.00
1:51 pm 13:51 Sunny 91 32.8 20 -6.7 7 7 WNW 8 13 29.72 1006 10 16 0.00 0.00
2:51 pm 14:51 Sunny 93 33.9 17 -8.3 6 6 W 9 15 29.69 1006 10 16 0.00 0.00
3:51 pm 15:51 Sunny 93 33.9 13 -10.6 5 5 Calm 29.67 1005 10 16 0.00 0.00
4:51 pm 16:51 Sunny 94 34.4 16 -8.9 6 6 NW 10 17 29.67 1005 10 16 0.00 0.00
5:51 pm 17:51 Sunny 93 33.9 15 -9.4 6 6 WNW 16 26 29.66 1004 10 16 0.00 0.00
6:51 pm 18:51 Sunny 89 31.7 15 -9.4 6 6 WNW 18 30 29.66 1004 10 16 0.00 0.00
7:51 pm 19:51 Clear 84 28.9 18 -7.8 8 8 WNW 15 24 29.67 1005 10 16 0.00 0.00
8:51 pm 20:51 Clear 81 27.2 20 -6.7 10 10 NW 12 19 29.69 1005 10 16 0.00 0.00
9:51 pm 21:51 Clear 78 25.6 23 -5 13 13 WNW 9 15 29.71 1006 10 16 0.00 0.00
10:51 pm 22:51 Clear 75 23.9 25 -3.9 15 15 NW 9 15 29.72 1007 10 16 0.00 0.00
11:51 pm 23:51 Clear 74 23.3 25 -3.9 16 16 NNW 12 19 29.72 1006 10 16 0.00 0.00

Powered by AerisWeather